Terug naar catalogus

COSMOS 1018

ActiefMilitairLEO
NORAD 10935·PAYLOAD·🇷🇺 Russia

Gelanceerd Jun 7, 1978 vanaf Plesetsk Cosmodrome

Loading…

Volgende Passages (komende 24 uur)

TLE

VersSource: Space-Track

Epoch: Sep 14, 2026, 13:55 UTC

1 10935U 78056F   26257.58027988 -.00000021  00000-0 -33951-4 0  9993
2 10935  74.0261 210.4092 0030049 288.8033 187.6948 12.49910922202495

Volg COSMOS 1018 in realtime met AllMySat

Download on the App Store